Los Alamos, NM

9:30 PM MDT on September 22, 2017 (GMT -0600)
Los Alamos

Weather History for KLAM - December, 2012

Change the Weather History Date:

Wednesday, December 5, 2012

  Actual Average Record
Temperature  
Mean Temperature 46 °F -  
Max Temperature 55 °F 43 °F 59 °F (1965)
Min Temperature 36 °F 22 °F 5 °F (1996)
Degree Days  
Heating Degree Days 20    
Moisture  
Dew Point 16 °F    
Average Humidity 30    
Maximum Humidity 44    
Minimum Humidity 21    
Precipitation  
Precipitation 0.00 in - - ()
Sea Level Pressure  
Sea Level Pressure 30.27 in    
Wind  
Wind Speed 2 mph (SSE)    
Max Wind Speed 8 mph    
Max Gust Speed -    
Visibility 10 miles    
Events      
Averages and records for this station are not official NWS values.
T = Trace of Precipitation, MM = Missing Value Source: NWS Daily Summary

Daily Weather History Graph

Daily Weather History Graph

Search for Another Location

Airport or City:

Trip Planner

Search our weather history database for the weather conditions in past years. The results will help you decide how hot, cold, wet, or windy it might be!

Date:

Astronomy

Dec. 05, 2012 Rise Set
Actual Time 7:00 AM MST 4:50 PM MST
Civil Twilight 6:32 AM MST 5:19 PM MST
Nautical Twilight 6:00 AM MST 5:51 PM MST
Astronomical Twilight 5:29 AM MST 6:22 PM MST
Moon 11:33 PM MST (12/5) 11:34 AM MST (12/5)
Length of Visible Light 10h 46m
Length of Day
9h 50m
Waning Gibbous, 59% of the Moon is Illuminated
Dec 5
Waning Gibbous
Dec 6
Last Quarter
Dec 13
New
Dec 19
First Quarter
Dec 28
Full

Hourly Weather History & Observations

Time (MST) Temp. Windchill Dew Point Humidity Pressure Visibility Wind Dir Wind Speed Gust Speed Precip Events Conditions
12:15 AM 38.3 °F - 17.8 °F 44% 30.38 in 10.0 mi Calm Calm - N/A   Clear
12:55 AM 38.3 °F - 15.4 °F 39% 30.37 in 10.0 mi Calm Calm - N/A   Clear
1:15 AM 38.5 °F - 16.0 °F 40% 30.36 in 10.0 mi Calm Calm - N/A   Clear
1:35 AM 39.4 °F - 17.4 °F 41% 30.35 in 10.0 mi Calm Calm - N/A   Clear
1:55 AM 38.5 °F - 17.4 °F 43% 30.35 in 10.0 mi Calm Calm - N/A   Clear
2:15 AM 40.6 °F 38.6 °F 15.8 °F 37% 30.35 in 10.0 mi North 3.5 mph - N/A   Clear
2:35 AM 40.3 °F - 15.8 °F 37% 30.34 in 10.0 mi Calm Calm - N/A   Clear
2:55 AM 39.2 °F - 16.2 °F 39% 30.34 in 10.0 mi Calm Calm - N/A   Clear
3:15 AM 39.4 °F - 16.2 °F 39% 30.33 in 10.0 mi Calm Calm - N/A   Clear
3:35 AM 42.1 °F 39.2 °F 13.8 °F 32% 30.33 in 10.0 mi NW 4.6 mph - N/A   Clear
3:55 AM 43.0 °F 40.3 °F 13.6 °F 30% 30.33 in 10.0 mi NNW 4.6 mph - N/A   Clear
4:15 AM 42.1 °F 38.4 °F 14.0 °F 32% 30.33 in 10.0 mi North 5.8 mph - N/A   Clear
4:35 AM 41.5 °F - 14.0 °F 33% 30.33 in 10.0 mi Calm Calm - N/A   Clear
4:55 AM 38.1 °F - 15.8 °F 40% 30.34 in 10.0 mi Calm Calm - N/A   Clear
5:15 AM 37.8 °F - 14.9 °F 39% 30.34 in 10.0 mi Calm Calm - N/A   Clear
5:35 AM 36.9 °F - 15.1 °F 41% 30.34 in 10.0 mi Calm Calm - N/A   Clear
5:55 AM 36.1 °F - 15.4 °F 43% 30.34 in 10.0 mi Calm Calm - N/A   Clear
7:35 AM 40.1 °F - 15.4 °F 37% 30.35 in 10.0 mi Calm Calm - N/A   Clear
7:55 AM 40.8 °F - 15.1 °F 35% 30.35 in 10.0 mi Calm Calm - N/A   Clear
8:15 AM 41.5 °F - 14.9 °F 34% 30.35 in 10.0 mi Calm Calm - N/A   Clear
8:35 AM 42.8 °F - 15.6 °F 33% 30.35 in 10.0 mi Calm Calm - N/A   Clear
8:55 AM 41.9 °F - 15.3 °F 34% 30.34 in 10.0 mi Calm Calm - N/A   Clear
9:15 AM 43.7 °F - 16.2 °F 33% 30.34 in 10.0 mi Calm Calm - N/A   Clear
9:35 AM 44.6 °F 43.1 °F 16.2 °F 32% 30.33 in 10.0 mi SSE 3.5 mph - N/A   Clear
9:55 AM 46.0 °F - 16.0 °F 30% 30.33 in 10.0 mi Calm Calm - N/A   Clear
10:15 AM 47.8 °F - 16.0 °F 28% 30.32 in 10.0 mi Calm Calm - N/A   Clear
10:35 AM 47.3 °F - 16.7 °F 30% 30.31 in 10.0 mi NE 3.5 mph - N/A   Clear
10:55 AM 48.4 °F - 16.7 °F 28% 30.31 in 10.0 mi East 4.6 mph - N/A   Clear
11:15 AM 50.0 °F - 17.1 °F 27% 30.29 in 10.0 mi ENE 3.5 mph - N/A   Clear
11:35 AM 51.6 °F - 16.9 °F 25% 30.28 in 10.0 mi SE 4.6 mph - N/A   Clear
11:55 AM 52.3 °F - 16.9 °F 25% 30.26 in 10.0 mi SE 8.1 mph - N/A   Clear
12:15 PM 53.2 °F - 16.7 °F 24% 30.25 in 10.0 mi SSE 8.1 mph - N/A   Clear
12:35 PM 53.8 °F - 16.7 °F 23% 30.23 in 10.0 mi SSE 5.8 mph - N/A   Clear
1:15 PM 53.8 °F - 16.7 °F 23% 30.22 in 10.0 mi SE 6.9 mph - N/A   Clear
1:35 PM 54.0 °F - 16.7 °F 23% 30.20 in 10.0 mi SE 8.1 mph - N/A   Clear
1:55 PM 54.1 °F - 16.5 °F 23% 30.20 in 10.0 mi ESE 3.5 mph - N/A   Clear
2:15 PM 54.7 °F - 16.5 °F 22% 30.19 in 10.0 mi SE 5.8 mph - N/A   Clear
2:35 PM 55.4 °F - 16.3 °F 22% 30.18 in 10.0 mi SE 4.6 mph - N/A   Clear
2:55 PM 54.7 °F - 15.8 °F 22% 30.17 in 10.0 mi SSE 5.8 mph - N/A   Clear
3:15 PM 54.5 °F - 15.4 °F 21% 30.17 in 10.0 mi South 5.8 mph - N/A   Clear
3:35 PM 53.2 °F - 15.6 °F 23% 30.17 in 10.0 mi SSE 5.8 mph - N/A   Clear
3:55 PM 53.1 °F - 16.2 °F 23% 30.16 in 10.0 mi SSE 6.9 mph - N/A   Clear
4:15 PM 52.5 °F - 16.3 °F 24% 30.17 in 10.0 mi Calm Calm - N/A   Clear
4:35 PM 52.3 °F - 16.5 °F 24% 30.17 in 10.0 mi Calm Calm - N/A   Clear
4:55 PM 51.8 °F - 17.4 °F 26% 30.16 in 10.0 mi Calm Calm - N/A   Clear
5:15 PM 51.4 °F - 17.6 °F 26% 30.15 in 10.0 mi SW 3.5 mph - N/A   Clear
5:35 PM 50.5 °F - 18.1 °F 28% 30.15 in 10.0 mi Calm Calm - N/A   Clear
5:55 PM 52.2 °F - 18.3 °F 26% 30.15 in 10.0 mi SW 4.6 mph - N/A   Clear
6:15 PM 52.3 °F - 18.1 °F 26% 30.15 in 10.0 mi SW 5.8 mph - N/A   Clear
6:35 PM 54.5 °F - 18.1 °F 24% 30.15 in 10.0 mi SW 6.9 mph - N/A   Clear
6:55 PM 54.7 °F - 18.3 °F 24% 30.15 in 10.0 mi SW 5.8 mph - N/A   Clear
7:15 PM 54.0 °F - 18.3 °F 25% 30.15 in 10.0 mi SW 5.8 mph - N/A   Clear
7:35 PM 53.2 °F - 18.1 °F 25% 30.15 in 10.0 mi SW 4.6 mph - N/A   Clear